Погода в Горках

Россия / Владимирская область     56°34′49″N   39°23′13″E
темп.,
°C
ветер,
м/с
пор.,
м/с
влажн.,
%
обл.,
%
осадки,
мм/ч
давл.,
гПа
погр.,
м
17 октября, вс
вс1700:00+6зюз49765 0.1 1012581
03:00+4юз512905 0.1 1012368
06:00+4юз615895 0.0 1011459
09:00+5юз6128599 0.0 1011645
12:00+7зюз71176100 0.0 1011875
15:00+7зюз7973100 0.0 1011942
18:00+6юз51182100 0.0 1011635
21:00+5юз5118863 0.0 1011433
18 октября, пн
пн1800:00+6зюз488362 0.0 1011388
03:00+4юз379548 0.0 1010159
06:00+5юз51090100 0.1 1008451
09:00+6юз6118440 0.1 1007695
12:00+5з5991100 0.9 10071071
15:00+6з586915 2.1 10071176
18:00+3зюз410765 0.0 1008318
21:00+2з5108519 0.0 1009352
19 октября, вт
вт1900:00+3зюз598698 0.0 1010388
03:00+1зюз489489 0.0 1011237
06:00+2зсз479579 0.0 1011492
09:00+2сз468198 0.1 1013696
12:00+2сз479398 0.3 1014529
15:00+2сз699092 0.9 1014671
18:00+2сз5878100 0.1 1016646
21:00+1сз5887100 0.1 1017440
20 октября, ср
ср2000:00+1зсз478699 0.0 1018362
03:00+1сз589295 0.1 1019481
06:00−2сз588656 0.0 1020514
09:00−2сз577963 0.0 1022471
12:00+1сз44595 0.0 1022829
15:00+1з34565 0.0 1021915
18:00−1юз33738 0.0 102248
21:00−2ююз48808 0.0 1020187
21 октября, чт
чт2100:00−1ююз61373100 0.0 1018380
03:000ююз71771100 0.0 1015481
06:00+1ююз81876100 0.2 1012544
09:00+2ююз91983100 1.1 1009672
12:00+6ююз91867100 0.0 1007712
15:00+7ююз91866100 0.0 1005678
18:00+7ююз91968100 0.0 1003705
21:00+7юз101874100 0.0 1002809